DW4892 Weather Reports


Display with metric or nautical units.
time (UTC)temp
F
wind
direction
speed
MPH
gust
MPH
rain 1hr
in
rain 24hr
in
rain mn
in
humidity
%
barometer
mb
20260505183020 37 59 2.0 7.0 0.01 0.27 0.17 94 1005.0
20260505181514 37 98 2.0 7.0 0.01 0.27 0.17 94 1004.9
20260505180027 37 71 2.0 5.0 0.02 0.27 0.17 94 1005.0
20260505174529 37 39 2.0 7.0 0.01 0.26 0.16 94 1005.0
20260505173022 36 109 3.0 7.0 0.01 0.26 0.16 94 1004.7
20260505171517 36 50 3.0 8.0 0.01 0.26 0.16 94 1004.6
20260505170019 36 104 2.0 6.0 0.01 0.25 0.15 94 1004.7
20260505164529 36 77 3.0 6.0 0.01 0.25 0.15 94 1004.7
20260505163029 36 67 3.0 8.0 0.01 0.25 0.15 94 1005.0
20260505161521 36 64 2.0 6.0 0.01 0.25 0.15 94 1004.7
20260505153029 36 88 1.0 4.0 0.01 0.24 0.14 94 1004.5
20260505151522 36 64 1.0 5.0 0.02 0.24 0.14 94 1004.5
20260505124521 37 335 2.0 6.0 0.05 0.19 0.09 94 1001.8
20260505123015 37 244 1.0 6.0 0.04 0.18 0.08 94 1001.5
20260505121533 37 246 2.0 7.0 0.03 0.16 0.06 94 1001.7
20260505120024 38 301 2.0 6.0 0.05 0.15 0.05 93 1001.5
20260505114519 38 206 3.0 8.0 0.04 0.14 0.04 94 1001.3
20260505113021 39 298 2.0 5.0 0.04 0.14 0.04 94 1001.1
20260505111529 40 163 2.0 7.0 0.03 0.13 0.03 93 1000.7
20260505100020 43 346 0.0 2.0 0.00 0.10 0.00 92 999.8
20260505094536 43 24 0.0 2.0 0.00 0.10 0.00 91 999.5
20260505093032 44 84 0.0 3.0 0.00 0.10 0.00 91 999.6
20260505091527 44 92 1.0 3.0 0.00 0.10 0.00 91 999.8
20260505090016 44 90 1.0 2.0 0.00 0.10 0.00 91 999.8
20260505084517 44 91 1.0 3.0 0.00 0.10 0.00 92 999.4
20260505083032 44 83 0.0 3.0 0.00 0.10 0.00 91 999.4
20260505081529 45 47 0.0 3.0 0.00 0.10 0.00 91 999.8
20260505080022 45 123 0.0 2.0 0.00 0.10 0.00 92 1000.1
20260505074517 45 175 0.0 1.0 0.00 0.10 0.00 92 1000.1
20260505073036 45 174 0.0 2.0 0.00 0.10 0.00 92 1000.5
20260505071525 45 115 0.0 2.0 0.00 0.10 0.00 91 1000.4
20260505070018 45 180 0.0 2.0 0.00 0.10 0.00 91 1000.8
20260505064517 45 175 0.0 2.0 0.00 0.10 0.00 92 1000.8
20260505063029 45 100 0.0 1.0 0.01 0.10 0.00 92 1001.0
20260505061525 45 94 0.0 2.0 0.01 0.10 0.00 92 1000.9
20260505060030 45 100 1.0 2.0 0.03 0.10 0.00 92 1000.8
20260505054530 45 90 0.0 3.0 0.05 0.10 0.10 92 1001.1
20260505053010 45 200 0.0 1.0 0.04 0.09 0.09 91 1000.6
20260505051529 45 276 0.0 1.0 0.05 0.09 0.09 91 1000.9
20260505041530 46 271 0.0 2.0 0.04 0.04 0.04 88 1000.9
20260505040028 47 254 0.0 2.0 0.03 0.03 0.03 87 1000.8
20260505034520 47 286 1.0 3.0 0.01 0.01 0.01 82 1000.5
20260505033019 50 288 1.0 4.0 0.00 0.00 0.00 74 1000.3
20260505031511 51 283 1.0 3.0 0.00 0.00 0.00 66 1000.2
20260505030029 51 10 0.0 2.0 0.00 0.00 0.00 62 999.9
20260505024521 51 50 0.0 4.0 0.00 0.00 0.00 63 999.8
20260505023018 50 354 0.0 1.0 0.00 0.00 0.00 64 999.3
20260505021531 50 354 0.0 2.0 0.00 0.00 0.00 64 999.2
20260505020029 51 329 0.0 2.0 0.00 0.00 0.00 64 999.0
20260505014526 51 293 0.0 3.0 0.00 0.00 0.00 62 998.7
20260505013019 52 3 0.0 3.0 0.00 0.00 0.00 63 998.5
20260505011520 54 52 2.0 9.0 0.00 0.00 0.00 57 998.5
20260505010032 55 334 1.0 4.0 0.00 0.00 0.00 48 998.5
20260505004537 56 36 1.0 7.0 0.00 0.00 0.00 47 998.2
20260505003023 57 278 2.0 7.0 0.00 0.00 0.00 42 998.0
20260505001514 58 158 1.0 6.0 0.00 0.00 0.00 40 997.8
20260505000017 58 18 1.0 8.0 0.00 0.00 0.00 41 997.4
20260504234535 60 63 2.0 9.0 0.00 0.00 0.00 36 997.4
20260504233021 61 69 3.0 9.0 0.00 0.00 0.00 35 997.2
20260504231532 61 52 3.0 11.0 0.00 0.00 0.00 35 997.2
20260504230014 62 86 8.0 14.0 0.00 0.00 0.00 34 996.4
20260504224529 63 79 8.0 14.0 0.00 0.00 0.00 32 996.1
20260504223027 67 92 3.0 10.0 0.00 0.00 0.00 28 995.8
20260504221523 66 68 1.0 7.0 0.00 0.00 0.00 28 995.8
20260504220015 66 320 1.0 7.0 0.00 0.00 0.00 27 995.8
20260504214516 67 339 2.0 5.0 0.00 0.00 0.00 28 995.9
20260504213030 67 340 1.0 7.0 0.00 0.00 0.00 27 995.9
20260504211524 68 165 3.0 8.0 0.00 0.00 0.00 27 996.1
20260504210020 67 103 2.0 8.0 0.00 0.00 0.00 26 996.2
20260504204522 71 5 2.0 8.0 0.00 0.00 0.00 27 996.2
20260504203013 68 304 2.0 7.0 0.00 0.00 0.00 27 996.3
20260504201525 68 52 3.0 8.0 0.00 0.00 0.00 26 996.4
20260504200029 69 317 2.0 8.0 0.00 0.00 0.00 26 996.4
20260504194521 67 25 3.0 10.0 0.00 0.00 0.00 27 996.5
20260504193021 69 338 3.0 9.0 0.00 0.00 0.00 26 996.5
20260504191513 70 9 3.0 11.0 0.00 0.00 0.00 25 996.3
20260504190034 70 69 4.0 8.0 0.00 0.00 0.00 27 996.3
20260504184522 66 319 3.0 8.0 0.00 0.00 0.00 26 996.3